[[{"header":{"parameterUnit":"m.s-1","parameterCategory":1,"la1":30.2992,"la2":30.254,"lo1":-89.0895,"lo2":-89.0443,"dy":0.0025,"dx":0.0025,"nx":19,"ny":19,"refTime":"2026-04-19T21:00:00:Z","depth":0,"parameterNumber":2,"parameterNumberName":"U-component_of_WINDS"},"data":[0,0,0,-6.4504,-6.4506,-6.4579,-6.4579,-6.4687,-6.4688,0,0,0,0,0,0,0,0,0,0,0,-6.4492,-6.4493,-6.4504,-6.4506,-6.4579,-6.4579,-6.4687,-6.4688,0,0,0,0,0,0,0,0,0,0,0,-6.4491,-6.4493,-6.4494,-6.4506,-6.4579,-6.4579,-6.4686,-6.4626,0,0,0,0,0,0,0,0,0,0,-6.4553,-6.455,-6.4492,-6.4494,-6.4507,-6.4579,-6.4579,-6.4623,-6.463,-6.466,0,-6.469,0,-6.4691,-6.4696,-6.4697,0,0,0,-6.4499,-6.4545,-6.4556,-6.4494,-6.4508,-6.4579,-6.4544,-6.4627,-6.4635,-6.467,-6.4692,-6.4695,-6.4693,-6.4697,-6.4698,-6.49,-6.4901,0,0,-6.4495,-6.4509,-6.4551,-6.4562,-6.4552,-6.4542,-6.4546,-6.4631,-6.4656,-6.4692,-6.4698,-6.4695,-6.4698,-6.4699,-6.4899,-6.49,0,0,0,-6.4488,-6.4507,-6.4516,-6.4558,-6.457,-6.4544,-6.4549,-6.4652,-6.4654,-6.4699,-6.4696,-6.4698,-6.47,-6.4897,-6.4899,-6.4976,0,0,0,-6.4485,-6.4503,-6.4515,-6.4524,-6.4569,-6.4612,-6.4568,-6.4648,-6.4657,-6.4695,-6.4699,-6.4701,-6.4896,-6.4898,-6.4971,-6.5009,0,0,0,-6.4484,-6.4503,-6.4517,-6.4525,-6.4557,-6.461,-6.4617,-6.465,-6.4656,-6.4697,-6.4702,-6.4895,-6.4898,-6.4966,-6.5001,-6.5066,0,0,0,-6.4486,-6.4583,-6.4518,-6.4626,-6.4557,-6.4658,-6.4616,-6.4691,-6.4735,-6.4699,-6.4896,-6.4899,-6.4965,-6.4997,-6.5061,-6.5121,-6.5148,0,0,-6.4616,-6.4599,-6.4662,-6.4606,-6.4723,-6.4646,-6.4774,-6.48,-6.4791,-6.4864,-6.4869,-6.4973,-6.5001,-6.5065,-6.5299,-6.5321,0,0,0,-6.4708,-6.4753,-6.4781,-6.4824,-6.4848,-6.4872,-6.4877,-6.4888,-6.4949,-6.4832,-6.5014,-6.503,-6.5067,-6.5095,-6.5114,-6.5144,-6.4913,-6.4913,-6.4913,-6.491,-6.4895,-6.4997,-6.4991,-6.5035,-6.5041,-6.5074,-6.5089,-6.5059,-6.5103,-6.5123,-6.5268,-6.5301,-6.5315,-6.5347,-6.5156,-6.5157,-6.5157,-6.5157,-6.5098,-6.5159,-6.512,-6.5205,-6.5189,-6.526,-6.5271,-6.5249,-6.5312,-6.525,-6.5282,-6.5214,-6.5339,-6.5366,-6.5163,-6.5162,-6.5161,-6.5161,-6.516,-6.5227,-6.5253,-6.5266,-6.5329,-6.538,-6.5371,-6.5435,-6.5418,-6.5402,-6.5434,-6.5453,-6.5452,-6.5447,-6.5445,-6.5446,-6.5446,-6.5447,-6.5447,-6.5447,-6.5354,-6.5366,-6.5422,-6.5459,-6.5486,-6.5519,-6.553,-6.5556,-6.558,-6.5562,-6.5562,-6.5528,-6.5356,-6.5311,-6.5455,-6.5453,-6.5452,-6.5452,-6.5451,-6.5545,-6.55,-6.5587,-6.5614,-6.5657,-6.5709,-6.5688,-6.5743,-6.5762,-6.5794,-6.5756,-6.5631,-6.5612,-6.5597,-6.556,-6.5759,-6.5759,-6.5759,-6.5759,-6.5652,-6.5642,-6.5727,-6.5773,-6.5815,-6.5806,-6.5905,-6.5916,-6.5919,-6.593,-6.59,-6.5851,-6.5837,-6.5825,-6.5805,-6.577,-6.6019,-6.6019,-6.6019,-6.5768,-6.5762,-6.5849,-6.5853,-6.5886,-6.5915,-6.6007,-6.6061,-6.6056,-6.603,-6.5939,-6.5928,-6.5848,-6.5823,-6.579,-6.576,-6.5696,0,0]},{"header":{"parameterUnit":"m.s-1","parameterCategory":1,"la1":30.2992,"la2":30.254,"lo1":-89.0895,"lo2":-89.0443,"dy":0.0025,"dx":0.0025,"nx":19,"ny":19,"refTime":"2026-04-19T21:00:00:Z","depth":0,"parameterNumber":3,"parameterNumberName":"V-component_of_WINDS"},"data":[0,0,0,4.4569,4.457,4.4587,4.4587,4.4605,4.4605,0,0,0,0,0,0,0,0,0,0,0,4.4562,4.4562,4.4569,4.457,4.4587,4.4587,4.4605,4.4605,0,0,0,0,0,0,0,0,0,0,0,4.4562,4.4562,4.4562,4.457,4.4587,4.4587,4.4605,4.4593,0,0,0,0,0,0,0,0,0,0,4.4576,4.4567,4.4562,4.4562,4.457,4.4587,4.4587,4.4592,4.4594,4.4595,0,4.4596,0,4.4601,4.4606,4.4606,0,0,0,4.4571,4.4566,4.4574,4.4562,4.457,4.4587,4.458,4.4593,4.4594,4.4596,4.4596,4.4597,4.4601,4.4606,4.4606,4.4612,4.4612,0,0,4.457,4.4563,4.4573,4.4574,4.4573,4.4579,4.458,4.4594,4.4593,4.4596,4.4598,4.4601,4.4606,4.4606,4.4612,4.4612,0,0,0,4.4566,4.4562,4.4569,4.4573,4.4577,4.458,4.4581,4.4592,4.4595,4.4598,4.4602,4.4606,4.4606,4.4612,4.4612,4.4605,0,0,0,4.4566,4.456,4.4569,4.4565,4.4577,4.4585,4.4579,4.4594,4.4596,4.4602,4.4606,4.4606,4.4612,4.4612,4.4605,4.4602,0,0,0,4.4561,4.456,4.4562,4.4564,4.4572,4.4585,4.4589,4.4595,4.4598,4.4606,4.4606,4.4612,4.4612,4.4606,4.4603,4.4603,0,0,0,4.4554,4.4553,4.4561,4.4563,4.4572,4.4581,4.4589,4.4596,4.4601,4.4606,4.4612,4.4612,4.4606,4.4603,4.4603,4.4602,4.4601,0,0,4.4549,4.4553,4.4554,4.4562,4.4568,4.4579,4.4584,4.4595,4.46,4.4608,4.4608,4.4605,4.4603,4.4603,4.4597,4.4596,0,0,0,4.455,4.4551,4.4554,4.456,4.457,4.4578,4.4589,4.4593,4.46,4.4603,4.4606,4.4604,4.4605,4.4604,4.4603,4.4604,4.4612,4.4612,4.4612,4.4532,4.4543,4.4546,4.4559,4.4564,4.4577,4.4583,4.459,4.4596,4.4597,4.4599,4.4594,4.4594,4.4593,4.4594,4.4599,4.4599,4.4599,4.4599,4.4527,4.453,4.4542,4.4549,4.4559,4.4565,4.4578,4.4583,4.4589,4.4593,4.4594,4.4597,4.4592,4.4593,4.4599,4.4599,4.4599,4.4599,4.4599,4.4516,4.452,4.4527,4.4538,4.4546,4.4559,4.4566,4.4574,4.4582,4.4583,4.4587,4.4587,4.4588,4.4584,4.4584,4.4584,4.4584,4.4584,4.4584,4.4502,4.451,4.4516,4.4528,4.4535,4.4544,4.4559,4.4565,4.4573,4.4579,4.4579,4.4586,4.459,4.4591,4.4584,4.4584,4.4584,4.4584,4.4584,4.4492,4.4496,4.4505,4.4511,4.4528,4.4536,4.4548,4.456,4.4566,4.457,4.4577,4.4579,4.4582,4.4582,4.4583,4.4575,4.4575,4.4575,4.4575,4.4483,4.4486,4.4498,4.4509,4.452,4.4533,4.4542,4.4554,4.4566,4.4571,4.4574,4.4576,4.4576,4.4579,4.458,4.458,4.4571,4.4571,4.4571,4.4477,4.4483,4.4489,4.4504,4.4518,4.453,4.4539,4.455,4.4565,4.4572,4.4575,4.4575,4.4578,4.4579,4.4584,4.4585,4.4586,0,0]}]]